ENT4029 EPWA-DTNH

Flight info

Callsign ENT4029
Flight time 2h 44m
Altitude 36000
Route EVINA DCT KUKAM DCT BABKO DCT XOMBA DCT KOPRY DCT XAMIT/N0451F370 DCT PININ DCT TUNEX UM738 DIDON G727 ATLEL ATLEL1V
Aircraft B738/M-SDGHIJ1RWXY/LB1

Departure

Time 2026-05-05 07:38
Airport Warsaw Chopin Airport (EPWA)

Arrival

Time 2026-05-05 10:22
Airport Enfidha - Hammamet International Airport (DTNH)
Time Latitude Longitude Altitude Speed Heading
2026-05-05 07:28 52.17874 20.96340 341 ft 2 kts 264°
2026-05-05 07:28 52.17876 20.96356 341 ft 2 kts 250°
2026-05-05 07:29 52.17879 20.96367 341 ft 1 kts 239°
2026-05-05 07:29 52.17881 20.96373 341 ft 0 kts 242°
2026-05-05 07:32 52.17880 20.96372 341 ft 0 kts 242°
2026-05-05 07:32 52.17874 20.96354 341 ft 2 kts 242°
2026-05-05 07:32 52.17854 20.96291 341 ft 7 kts 242°
2026-05-05 07:32 52.17827 20.96208 340 ft 11 kts 242°
2026-05-05 07:33 52.17784 20.96091 342 ft 10 kts 216°
2026-05-05 07:33 52.17704 20.96125 341 ft 15 kts 152°
2026-05-05 07:33 52.17605 20.96212 340 ft 16 kts 151°
2026-05-05 07:33 52.17506 20.96299 339 ft 15 kts 153°
2026-05-05 07:34 52.17406 20.96386 339 ft 17 kts 153°
2026-05-05 07:34 52.17273 20.96500 338 ft 22 kts 152°
2026-05-05 07:34 52.17137 20.96618 337 ft 21 kts 152°
2026-05-05 07:34 52.17001 20.96738 337 ft 23 kts 152°
2026-05-05 07:35 52.16858 20.96863 336 ft 22 kts 152°
2026-05-05 07:35 52.16721 20.96982 336 ft 22 kts 151°
2026-05-05 07:35 52.16632 20.97164 337 ft 20 kts 115°
2026-05-05 07:35 52.16575 20.97366 337 ft 19 kts 115°
2026-05-05 07:36 52.16501 20.97629 337 ft 20 kts 114°
2026-05-05 07:36 52.16462 20.97766 336 ft 19 kts 114°
2026-05-05 07:36 52.16362 20.97771 336 ft 16 kts 208°
2026-05-05 07:36 52.16302 20.97690 336 ft 7 kts 279°
2026-05-05 07:37 52.16323 20.97608 337 ft 9 kts 294°
2026-05-05 07:37 52.16420 20.97259 337 ft 70 kts 295°
2026-05-05 07:37 52.16726 20.96167 340 ft 139 kts 294°
2026-05-05 07:37 52.17199 20.94464 438 ft 185 kts 294°
2026-05-05 07:38 52.17678 20.92583 1301 ft 177 kts 292°
2026-05-05 07:38 52.18135 20.90788 1921 ft 180 kts 292°
2026-05-05 07:38 52.18517 20.88722 2183 ft 203 kts 274°
2026-05-05 07:38 52.18356 20.86362 2593 ft 220 kts 246°
2026-05-05 07:39 52.17686 20.84117 3209 ft 228 kts 239°
2026-05-05 07:39 52.16525 20.82243 3694 ft 244 kts 206°
2026-05-05 07:39 52.14880 20.81398 4277 ft 256 kts 194°
2026-05-05 07:39 52.13145 20.80725 4997 ft 261 kts 197°
2026-05-05 07:40 52.11422 20.79852 5745 ft 265 kts 201°
2026-05-05 07:40 52.09697 20.78832 6557 ft 266 kts 202°
2026-05-05 07:40 52.07964 20.77758 7359 ft 268 kts 202°
2026-05-05 07:40 52.06242 20.76687 8135 ft 270 kts 202°
2026-05-05 07:41 52.04493 20.75608 8893 ft 271 kts 202°
2026-05-05 07:41 52.02737 20.74531 9617 ft 274 kts 202°
2026-05-05 07:41 52.00947 20.73436 10310 ft 278 kts 202°
2026-05-05 07:41 51.99074 20.72291 10702 ft 293 kts 202°
2026-05-05 07:42 51.97133 20.71105 11064 ft 309 kts 202°
2026-05-05 07:42 51.95074 20.69850 11434 ft 323 kts 202°
2026-05-05 07:42 51.92937 20.68548 11776 ft 338 kts 202°
2026-05-05 07:42 51.90701 20.67188 12312 ft 347 kts 202°
2026-05-05 07:43 51.88448 20.65821 12948 ft 352 kts 203°
2026-05-05 07:43 51.86166 20.64439 13628 ft 355 kts 203°
2026-05-05 07:43 51.83844 20.63033 14307 ft 358 kts 203°
2026-05-05 07:43 51.81522 20.61628 14963 ft 361 kts 203°
2026-05-05 07:44 51.79158 20.60198 15609 ft 365 kts 203°
2026-05-05 07:44 51.76787 20.58765 16216 ft 369 kts 203°
2026-05-05 07:44 51.74379 20.57310 16810 ft 373 kts 202°
2026-05-05 07:44 51.71919 20.55827 17433 ft 376 kts 202°
2026-05-05 07:45 51.69472 20.54353 17980 ft 381 kts 202°
2026-05-05 07:45 51.67003 20.52866 18569 ft 384 kts 202°
2026-05-05 07:45 51.64485 20.51353 19151 ft 387 kts 202°
2026-05-05 07:45 51.61956 20.49835 19712 ft 390 kts 202°
2026-05-05 07:46 51.59426 20.48319 20247 ft 394 kts 202°
2026-05-05 07:46 51.56845 20.46773 20770 ft 397 kts 202°
2026-05-05 07:46 51.54246 20.45218 21303 ft 400 kts 202°
2026-05-05 07:46 51.51659 20.43673 21777 ft 404 kts 202°
2026-05-05 07:47 51.49024 20.42101 22283 ft 407 kts 202°
2026-05-05 07:47 51.46376 20.40522 22744 ft 411 kts 202°
2026-05-05 07:47 51.43671 20.38912 23199 ft 414 kts 202°
2026-05-05 07:47 51.40987 20.37317 23661 ft 417 kts 202°
2026-05-05 07:48 51.38248 20.35695 24102 ft 421 kts 201°
2026-05-05 07:48 51.35500 20.34158 24574 ft 424 kts 199°
2026-05-05 07:48 51.32700 20.32680 24987 ft 428 kts 199°
2026-05-05 07:48 51.29837 20.31213 25493 ft 429 kts 199°
2026-05-05 07:49 51.27004 20.29775 25871 ft 434 kts 199°
2026-05-05 07:49 51.24139 20.28320 26326 ft 436 kts 199°
2026-05-05 07:49 51.21273 20.26861 26757 ft 438 kts 199°
2026-05-05 07:49 51.18375 20.25382 27171 ft 440 kts 199°
2026-05-05 07:50 51.15434 20.23876 27583 ft 443 kts 199°
2026-05-05 07:50 51.12530 20.22386 28018 ft 444 kts 199°
2026-05-05 07:50 51.09589 20.20877 28397 ft 447 kts 199°
2026-05-05 07:50 51.06635 20.19361 28776 ft 449 kts 199°
2026-05-05 07:51 51.03645 20.17826 29101 ft 452 kts 199°
2026-05-05 07:51 51.00632 20.16282 29522 ft 453 kts 199°
2026-05-05 07:51 50.97624 20.14743 30113 ft 450 kts 199°
2026-05-05 07:51 50.94620 20.13209 30608 ft 448 kts 199°
2026-05-05 07:52 50.91681 20.11709 31030 ft 448 kts 200°
2026-05-05 07:52 50.88716 20.10196 31474 ft 447 kts 200°
2026-05-05 07:52 50.85772 20.08697 31931 ft 445 kts 200°
2026-05-05 07:52 50.82827 20.07199 32358 ft 444 kts 200°
2026-05-05 07:53 50.79909 20.05715 32790 ft 442 kts 200°
2026-05-05 07:53 50.76994 20.04235 33177 ft 441 kts 200°
2026-05-05 07:53 50.74092 20.02764 33534 ft 440 kts 200°
2026-05-05 07:53 50.71146 20.01273 33889 ft 440 kts 200°
2026-05-05 07:54 50.68246 19.99807 34244 ft 439 kts 200°
2026-05-05 07:54 50.65360 19.98351 34568 ft 438 kts 200°
2026-05-05 07:54 50.62473 19.96896 34913 ft 437 kts 200°
2026-05-05 07:54 50.59583 19.95440 35180 ft 436 kts 200°
2026-05-05 07:55 50.56720 19.93999 35405 ft 435 kts 200°
2026-05-05 07:55 50.53829 19.92545 35623 ft 435 kts 200°
2026-05-05 07:55 50.50951 19.91100 35840 ft 435 kts 200°
2026-05-05 07:55 50.48073 19.89657 35910 ft 437 kts 200°
2026-05-05 07:56 50.42301 19.86768 35919 ft 436 kts 200°
2026-05-05 07:56 50.36551 19.83901 35923 ft 435 kts 200°
2026-05-05 07:57 50.30814 19.81046 35918 ft 436 kts 200°
2026-05-05 07:57 50.25039 19.78180 35915 ft 436 kts 200°
2026-05-05 07:58 50.19275 19.75327 35917 ft 436 kts 200°
2026-05-05 07:58 50.13534 19.72493 35917 ft 436 kts 200°
2026-05-05 07:59 50.07732 19.69635 35918 ft 435 kts 200°
2026-05-05 07:59 50.01991 19.66815 35913 ft 436 kts 200°
2026-05-05 08:00 49.96226 19.63990 35915 ft 436 kts 200°
2026-05-05 08:00 49.90429 19.61155 35925 ft 436 kts 200°
2026-05-05 08:01 49.84671 19.58348 35927 ft 436 kts 200°
2026-05-05 08:01 49.78911 19.55547 35930 ft 436 kts 200°
2026-05-05 08:02 49.73126 19.52739 35937 ft 436 kts 200°
2026-05-05 08:02 49.67342 19.49940 35939 ft 436 kts 200°
2026-05-05 08:03 49.61618 19.47032 35947 ft 435 kts 204°
2026-05-05 08:03 49.56130 19.43222 35963 ft 434 kts 208°
2026-05-05 08:04 49.50769 19.38981 35966 ft 433 kts 210°
2026-05-05 08:04 49.45450 19.34699 35962 ft 433 kts 209°
2026-05-05 08:05 49.40107 19.30442 35975 ft 433 kts 208°
2026-05-05 08:05 49.34780 19.26240 35971 ft 432 kts 208°
2026-05-05 08:06 49.29416 19.22039 35975 ft 432 kts 208°
2026-05-05 08:06 49.24091 19.17887 35975 ft 432 kts 208°
2026-05-05 08:07 49.18714 19.13709 35974 ft 432 kts 208°
2026-05-05 08:07 49.13377 19.09574 35977 ft 433 kts 208°
2026-05-05 08:08 49.08006 19.05422 35974 ft 433 kts 208°
2026-05-05 08:08 49.02647 19.01291 35977 ft 434 kts 208°
2026-05-05 08:09 48.97275 18.97159 35972 ft 431 kts 208°
2026-05-05 08:09 48.91948 18.93072 35981 ft 431 kts 208°
2026-05-05 08:10 48.86569 18.88954 35980 ft 433 kts 208°
2026-05-05 08:10 48.81195 18.84848 35978 ft 433 kts 208°
2026-05-05 08:11 48.75827 18.80759 35962 ft 434 kts 208°
2026-05-05 08:11 48.70432 18.76660 35956 ft 435 kts 208°
2026-05-05 08:12 48.65037 18.72570 35942 ft 435 kts 208°
2026-05-05 08:12 48.59646 18.68493 35953 ft 435 kts 208°
2026-05-05 08:13 48.54216 18.64397 35949 ft 435 kts 208°
2026-05-05 08:13 48.48805 18.60323 35951 ft 435 kts 208°
2026-05-05 08:14 48.43405 18.56268 35949 ft 435 kts 208°
2026-05-05 08:14 48.37987 18.52209 35950 ft 436 kts 208°
2026-05-05 08:15 48.32591 18.48176 35942 ft 436 kts 208°
2026-05-05 08:15 48.27130 18.44106 35938 ft 437 kts 208°
2026-05-05 08:16 48.21691 18.40061 35934 ft 437 kts 208°
2026-05-05 08:16 48.16250 18.36026 35932 ft 437 kts 208°
2026-05-05 08:17 48.10778 18.31976 35933 ft 437 kts 207°
2026-05-05 08:17 48.05342 18.27960 35928 ft 437 kts 207°
2026-05-05 08:18 47.99904 18.23954 35928 ft 438 kts 207°
2026-05-05 08:18 47.94439 18.19938 35929 ft 439 kts 207°
2026-05-05 08:19 47.88969 18.15929 35928 ft 438 kts 207°
2026-05-05 08:19 47.83511 18.11937 35931 ft 438 kts 207°
2026-05-05 08:20 47.78043 18.07948 35925 ft 438 kts 207°
2026-05-05 08:20 47.72591 18.03957 35927 ft 438 kts 208°
2026-05-05 08:21 47.67170 17.99915 35938 ft 438 kts 208°
2026-05-05 08:21 47.61761 17.95867 35937 ft 438 kts 208°
2026-05-05 08:22 47.56317 17.91808 35946 ft 438 kts 208°
2026-05-05 08:22 47.50881 17.87771 35936 ft 439 kts 208°
2026-05-05 08:23 47.45441 17.83742 35935 ft 438 kts 208°
2026-05-05 08:23 47.39998 17.79721 35942 ft 438 kts 208°
2026-05-05 08:24 47.34547 17.75707 35944 ft 438 kts 208°
2026-05-05 08:24 47.29118 17.71718 35936 ft 438 kts 208°
2026-05-05 08:25 47.23645 17.67705 35945 ft 438 kts 208°
2026-05-05 08:25 47.18203 17.63727 35945 ft 438 kts 208°
2026-05-05 08:26 47.12767 17.59762 35946 ft 438 kts 208°
2026-05-05 08:26 47.07308 17.55789 35942 ft 438 kts 208°
2026-05-05 08:27 47.01821 17.51806 35930 ft 439 kts 208°
2026-05-05 08:27 46.96355 17.47846 35932 ft 438 kts 208°
2026-05-05 08:28 46.90911 17.43912 35934 ft 438 kts 208°
2026-05-05 08:28 46.85445 17.39971 35922 ft 438 kts 208°
2026-05-05 08:29 46.80011 17.36061 35929 ft 438 kts 208°
2026-05-05 08:30 46.71805 17.30174 35927 ft 438 kts 207°
2026-05-05 08:30 46.66344 17.26267 35932 ft 437 kts 207°
2026-05-05 08:31 46.60904 17.22385 35947 ft 438 kts 207°
2026-05-05 08:31 46.55432 17.18489 35949 ft 438 kts 208°
2026-05-05 08:32 46.50000 17.14630 35952 ft 436 kts 208°
2026-05-05 08:32 46.44527 17.10748 35955 ft 437 kts 208°
2026-05-05 08:33 46.39095 17.06907 35961 ft 436 kts 208°
2026-05-05 08:33 46.33641 17.03057 35954 ft 438 kts 208°
2026-05-05 08:34 46.28198 16.99222 35961 ft 437 kts 208°
2026-05-05 08:34 46.22740 16.95371 35955 ft 435 kts 209°
2026-05-05 08:35 46.17409 16.91298 35967 ft 435 kts 211°
2026-05-05 08:35 46.12096 16.87088 35965 ft 435 kts 211°
2026-05-05 08:36 46.06798 16.82899 35977 ft 436 kts 211°
2026-05-05 08:36 46.01479 16.78731 35983 ft 435 kts 211°
2026-05-05 08:37 45.96143 16.74577 35979 ft 435 kts 211°
2026-05-05 08:37 45.90848 16.70474 35979 ft 434 kts 211°
2026-05-05 08:38 45.85519 16.66356 35971 ft 435 kts 211°
2026-05-05 08:38 45.80209 16.62265 35960 ft 435 kts 211°
2026-05-05 08:39 45.74864 16.58157 35962 ft 434 kts 211°
2026-05-05 08:39 45.69558 16.54085 35968 ft 434 kts 211°
2026-05-05 08:40 45.64240 16.50013 35970 ft 434 kts 211°
2026-05-05 08:40 45.58920 16.45950 35977 ft 435 kts 211°
2026-05-05 08:41 45.53596 16.41895 35979 ft 434 kts 211°
2026-05-05 08:41 45.48281 16.37852 35980 ft 435 kts 211°
2026-05-05 08:42 45.42945 16.33804 35980 ft 434 kts 210°
2026-05-05 08:42 45.37629 16.29779 35986 ft 434 kts 210°
2026-05-05 08:43 45.32304 16.25756 35991 ft 434 kts 210°
2026-05-05 08:43 45.26957 16.21727 35993 ft 434 kts 210°
2026-05-05 08:44 45.21638 16.17724 36002 ft 434 kts 210°
2026-05-05 08:44 45.16299 16.13714 36003 ft 434 kts 210°
2026-05-05 08:45 45.10990 16.09734 36005 ft 435 kts 210°
2026-05-05 08:45 45.05633 16.05727 36007 ft 435 kts 210°
2026-05-05 08:46 45.00281 16.01734 36011 ft 435 kts 211°
2026-05-05 08:46 44.94928 15.97749 36014 ft 435 kts 211°
2026-05-05 08:47 44.89577 15.93776 36022 ft 434 kts 211°
2026-05-05 08:47 44.84233 15.89817 36019 ft 434 kts 211°
2026-05-05 08:48 44.78918 15.85886 36023 ft 433 kts 211°
2026-05-05 08:48 44.73573 15.81943 36029 ft 434 kts 211°
2026-05-05 08:49 44.68232 15.78013 36034 ft 433 kts 211°
2026-05-05 08:49 44.62917 15.74106 36036 ft 433 kts 211°
2026-05-05 08:50 44.57600 15.70206 36036 ft 432 kts 211°
2026-05-05 08:50 44.52255 15.66295 36038 ft 431 kts 211°
2026-05-05 08:51 44.46976 15.62441 36037 ft 431 kts 211°
2026-05-05 08:51 44.41655 15.58562 36039 ft 431 kts 211°
2026-05-05 08:52 44.36345 15.54700 36040 ft 430 kts 211°
2026-05-05 08:52 44.31056 15.50861 36041 ft 430 kts 211°
2026-05-05 08:53 44.25736 15.47007 36035 ft 430 kts 211°
2026-05-05 08:53 44.20441 15.43177 36038 ft 429 kts 211°
2026-05-05 08:54 44.15158 15.39363 36044 ft 428 kts 211°
2026-05-05 08:54 44.09827 15.35523 36041 ft 428 kts 211°
2026-05-05 08:55 44.04534 15.31720 36041 ft 429 kts 210°
2026-05-05 08:55 43.99252 15.27934 36038 ft 428 kts 210°
2026-05-05 08:56 43.93940 15.24135 36038 ft 427 kts 210°
2026-05-05 08:56 43.88676 15.20379 36035 ft 425 kts 210°
2026-05-05 08:57 43.83418 15.16632 36033 ft 426 kts 211°
2026-05-05 08:57 43.78129 15.12870 36025 ft 424 kts 211°
2026-05-05 08:58 43.72895 15.09157 36026 ft 423 kts 211°
2026-05-05 08:58 43.67686 15.05468 36022 ft 422 kts 211°
2026-05-05 08:59 43.62463 15.01776 36018 ft 420 kts 211°
2026-05-05 08:59 43.57262 14.98103 36324 ft 422 kts 211°
2026-05-05 08:59 43.54630 14.96247 36583 ft 421 kts 211°
2026-05-05 09:00 43.52048 14.94430 36940 ft 419 kts 211°
2026-05-05 09:00 43.46825 14.90761 37014 ft 420 kts 211°
2026-05-05 09:01 43.41675 14.87151 37017 ft 416 kts 211°
2026-05-05 09:01 43.36531 14.83549 37006 ft 416 kts 211°
2026-05-05 09:02 43.31381 14.79951 37018 ft 416 kts 212°
2026-05-05 09:02 43.26209 14.76354 37008 ft 416 kts 211°
2026-05-05 09:03 43.21057 14.72798 37026 ft 416 kts 211°
2026-05-05 09:03 43.15913 14.69254 37025 ft 413 kts 211°
2026-05-05 09:04 43.10786 14.65727 37025 ft 412 kts 212°
2026-05-05 09:04 43.05650 14.62196 37030 ft 414 kts 212°
2026-05-05 09:05 43.00538 14.58686 37027 ft 412 kts 212°
2026-05-05 09:05 42.95412 14.55175 37030 ft 414 kts 212°
2026-05-05 09:06 42.90275 14.51664 37033 ft 412 kts 212°
2026-05-05 09:06 42.85119 14.48145 37034 ft 414 kts 212°
2026-05-05 09:07 42.79974 14.44637 37024 ft 416 kts 212°
2026-05-05 09:07 42.74789 14.41111 37025 ft 417 kts 211°
2026-05-05 09:08 42.69622 14.37607 37032 ft 418 kts 211°
2026-05-05 09:08 42.64421 14.34085 37031 ft 418 kts 211°
2026-05-05 09:09 42.59223 14.30574 37168 ft 421 kts 211°
2026-05-05 09:09 42.56626 14.28823 37038 ft 413 kts 211°
2026-05-05 09:09 42.54053 14.27091 37045 ft 410 kts 211°
2026-05-05 09:10 42.48940 14.23645 37041 ft 415 kts 211°
2026-05-05 09:10 42.43778 14.20172 37037 ft 413 kts 211°
2026-05-05 09:11 42.38609 14.16702 37048 ft 417 kts 211°
2026-05-05 09:11 42.33408 14.13218 37053 ft 414 kts 211°
2026-05-05 09:12 42.28261 14.09779 37053 ft 416 kts 211°
2026-05-05 09:12 42.23067 14.06313 37074 ft 417 kts 211°
2026-05-05 09:13 42.17872 14.02852 37076 ft 415 kts 211°
2026-05-05 09:13 42.12692 13.99409 37098 ft 416 kts 211°
2026-05-05 09:14 42.07494 13.95960 37104 ft 417 kts 211°
2026-05-05 09:14 42.02291 13.92514 37087 ft 417 kts 211°
2026-05-05 09:15 41.97062 13.89061 37105 ft 416 kts 212°
2026-05-05 09:15 41.91909 13.85665 37110 ft 415 kts 211°
2026-05-05 09:16 41.86670 13.82214 37116 ft 416 kts 211°
2026-05-05 09:16 41.81473 13.78797 37129 ft 417 kts 212°
2026-05-05 09:17 41.76227 13.75354 37132 ft 419 kts 212°
2026-05-05 09:17 41.70948 13.71897 37119 ft 420 kts 211°
2026-05-05 09:18 41.65714 13.68475 37113 ft 420 kts 212°
2026-05-05 09:18 41.60481 13.65062 37106 ft 419 kts 212°
2026-05-05 09:19 41.55229 13.61640 37108 ft 420 kts 212°
2026-05-05 09:19 41.49977 13.58225 37112 ft 421 kts 212°
2026-05-05 09:20 41.44688 13.54790 37110 ft 423 kts 212°
2026-05-05 09:20 41.39421 13.51379 37112 ft 423 kts 212°
2026-05-05 09:21 41.34109 13.47945 37110 ft 421 kts 212°
2026-05-05 09:21 41.28805 13.44522 37110 ft 423 kts 212°
2026-05-05 09:22 41.23543 13.41132 37107 ft 422 kts 212°
2026-05-05 09:22 41.18240 13.37717 37109 ft 423 kts 212°
2026-05-05 09:23 41.12944 13.34314 37111 ft 424 kts 212°
2026-05-05 09:23 41.07629 13.30903 37109 ft 426 kts 212°
2026-05-05 09:24 41.02318 13.27510 37111 ft 423 kts 211°
2026-05-05 09:24 40.97012 13.24124 37113 ft 424 kts 211°
2026-05-05 09:25 40.91707 13.20742 37109 ft 423 kts 211°
2026-05-05 09:25 40.86412 13.17374 37108 ft 424 kts 212°
2026-05-05 09:26 40.81099 13.13998 37112 ft 426 kts 212°
2026-05-05 09:26 40.75752 13.10609 37101 ft 424 kts 212°
2026-05-05 09:27 40.70441 13.07249 37109 ft 424 kts 211°
2026-05-05 09:27 40.65121 13.03889 37106 ft 425 kts 211°
2026-05-05 09:28 40.59811 13.00542 37105 ft 424 kts 211°
2026-05-05 09:28 40.54505 12.97203 37100 ft 424 kts 211°
2026-05-05 09:29 40.49166 12.93846 37098 ft 425 kts 211°
2026-05-05 09:29 40.43846 12.90510 37094 ft 426 kts 211°
2026-05-05 09:30 40.38501 12.87162 37096 ft 426 kts 211°
2026-05-05 09:30 40.33155 12.83820 37091 ft 427 kts 211°
2026-05-05 09:31 40.27817 12.80492 37089 ft 425 kts 211°
2026-05-05 09:31 40.22469 12.77160 37090 ft 427 kts 211°
2026-05-05 09:32 40.17133 12.73842 37088 ft 425 kts 211°
2026-05-05 09:32 40.11801 12.70535 37085 ft 425 kts 211°
2026-05-05 09:33 40.06465 12.67228 37081 ft 426 kts 211°
2026-05-05 09:33 40.01108 12.63914 37082 ft 427 kts 211°
2026-05-05 09:34 39.95727 12.60592 37081 ft 425 kts 211°
2026-05-05 09:34 39.90434 12.57331 37082 ft 425 kts 211°
2026-05-05 09:35 39.85066 12.54027 37080 ft 425 kts 211°
2026-05-05 09:35 39.77075 12.49121 37082 ft 425 kts 211°
2026-05-05 09:36 39.71713 12.45836 37078 ft 426 kts 211°
2026-05-05 09:36 39.66377 12.42573 37078 ft 426 kts 211°
2026-05-05 09:37 39.61008 12.39296 37079 ft 426 kts 211°
2026-05-05 09:37 39.55650 12.36030 37077 ft 426 kts 211°
2026-05-05 09:38 39.50310 12.32781 37073 ft 427 kts 210°
2026-05-05 09:38 39.44911 12.29502 37074 ft 426 kts 210°
2026-05-05 09:39 39.39567 12.26264 37078 ft 426 kts 210°
2026-05-05 09:39 39.34239 12.23039 37074 ft 425 kts 210°
2026-05-05 09:40 39.28880 12.19801 37071 ft 425 kts 210°
2026-05-05 09:40 39.23521 12.16565 37071 ft 430 kts 210°
2026-05-05 09:41 39.18049 12.13263 37070 ft 438 kts 210°
2026-05-05 09:41 39.12504 12.09931 37068 ft 437 kts 210°
2026-05-05 09:42 39.07028 12.06651 37070 ft 437 kts 210°
2026-05-05 09:42 39.01512 12.03348 37070 ft 438 kts 210°
2026-05-05 09:43 38.95998 12.00052 37067 ft 437 kts 210°
2026-05-05 09:43 38.90489 11.96763 37067 ft 438 kts 210°
2026-05-05 09:44 38.84944 11.93458 37067 ft 439 kts 210°
2026-05-05 09:44 38.79429 11.90179 37063 ft 437 kts 210°
2026-05-05 09:45 38.73936 11.86919 37060 ft 437 kts 210°
2026-05-05 09:45 38.68410 11.83642 37060 ft 437 kts 210°
2026-05-05 09:46 38.62904 11.80384 37060 ft 435 kts 210°
2026-05-05 09:46 38.57441 11.77155 37058 ft 436 kts 210°
2026-05-05 09:47 38.51912 11.73892 37063 ft 437 kts 210°
2026-05-05 09:47 38.46395 11.70642 37055 ft 436 kts 210°
2026-05-05 09:48 38.40879 11.67402 37053 ft 436 kts 210°
2026-05-05 09:48 38.35409 11.64191 37053 ft 436 kts 210°
2026-05-05 09:49 38.29911 11.60971 37050 ft 435 kts 210°
2026-05-05 09:49 38.24405 11.57751 37045 ft 436 kts 210°
2026-05-05 09:50 38.18872 11.54518 37043 ft 437 kts 210°
2026-05-05 09:50 38.13352 11.51301 37043 ft 436 kts 210°
2026-05-05 09:51 38.07854 11.48102 37042 ft 436 kts 210°
2026-05-05 09:51 38.02347 11.44903 37043 ft 435 kts 210°
2026-05-05 09:52 37.96830 11.41706 37040 ft 435 kts 210°
2026-05-05 09:52 37.91179 11.38903 37036 ft 440 kts 203°
2026-05-05 09:53 37.85237 11.36925 37033 ft 444 kts 199°
2026-05-05 09:53 37.79234 11.35204 37037 ft 445 kts 198°
2026-05-05 09:54 37.73200 11.33489 37035 ft 446 kts 198°
2026-05-05 09:54 37.67142 11.31733 37035 ft 446 kts 198°
2026-05-05 09:55 37.61113 11.29965 37034 ft 445 kts 198°
2026-05-05 09:55 37.55113 11.28195 37034 ft 444 kts 198°
2026-05-05 09:56 37.49082 11.26408 37037 ft 445 kts 198°
2026-05-05 09:56 37.43095 11.24638 37031 ft 438 kts 198°
2026-05-05 09:57 37.37202 11.22904 37035 ft 432 kts 199°
2026-05-05 09:57 37.31343 11.21171 36937 ft 433 kts 199°
2026-05-05 09:58 37.28434 11.20314 36567 ft 428 kts 199°
2026-05-05 09:58 37.25552 11.19468 36082 ft 424 kts 199°
2026-05-05 09:58 37.22703 11.18630 35487 ft 424 kts 199°
2026-05-05 09:58 37.19825 11.17782 34811 ft 424 kts 199°
2026-05-05 09:59 37.16976 11.16943 34105 ft 425 kts 199°
2026-05-05 09:59 37.14106 11.16099 33419 ft 425 kts 199°
2026-05-05 09:59 37.11229 11.15253 32784 ft 424 kts 198°
2026-05-05 09:59 37.08342 11.14407 32385 ft 425 kts 198°
2026-05-05 10:00 37.05426 11.13548 31892 ft 433 kts 198°
2026-05-05 10:00 37.02530 11.12697 31395 ft 430 kts 198°
2026-05-05 10:00 36.99615 11.11847 30891 ft 426 kts 198°
2026-05-05 10:00 36.96744 11.11012 30391 ft 421 kts 198°
2026-05-05 10:01 36.93899 11.10184 29905 ft 416 kts 198°
2026-05-05 10:01 36.91124 11.09376 29416 ft 412 kts 198°
2026-05-05 10:01 36.88338 11.08563 28933 ft 408 kts 198°
2026-05-05 10:01 36.85616 11.07748 28456 ft 403 kts 198°
2026-05-05 10:02 36.82902 11.06918 27972 ft 399 kts 198°
2026-05-05 10:02 36.80199 11.06085 27485 ft 396 kts 198°
2026-05-05 10:02 36.77546 11.05265 27002 ft 392 kts 198°
2026-05-05 10:02 36.74910 11.04453 26521 ft 388 kts 198°
2026-05-05 10:03 36.72310 11.03652 26049 ft 390 kts 198°
2026-05-05 10:03 36.69641 11.02830 25542 ft 395 kts 198°
2026-05-05 10:03 36.67005 11.02027 25019 ft 393 kts 197°
2026-05-05 10:03 36.64355 11.01229 24519 ft 389 kts 197°
2026-05-05 10:04 36.61726 11.00440 24032 ft 385 kts 197°
2026-05-05 10:04 36.59161 10.99672 23553 ft 381 kts 197°
2026-05-05 10:04 36.56598 10.98904 23081 ft 378 kts 197°
2026-05-05 10:04 36.54032 10.98136 22596 ft 375 kts 197°
2026-05-05 10:05 36.51511 10.97381 22126 ft 371 kts 197°
2026-05-05 10:05 36.49037 10.96640 21665 ft 368 kts 197°
2026-05-05 10:05 36.46535 10.95891 21183 ft 365 kts 197°
2026-05-05 10:05 36.44075 10.95155 20719 ft 362 kts 197°
2026-05-05 10:06 36.41639 10.94426 20251 ft 359 kts 197°
2026-05-05 10:06 36.39226 10.93705 19785 ft 357 kts 197°
2026-05-05 10:06 36.36850 10.92909 19306 ft 352 kts 201°
2026-05-05 10:06 36.34620 10.91733 18838 ft 345 kts 212°
2026-05-05 10:07 36.32664 10.90076 18382 ft 338 kts 222°
2026-05-05 10:07 36.30996 10.88099 17921 ft 333 kts 229°
2026-05-05 10:07 36.29534 10.85897 17488 ft 329 kts 235°
2026-05-05 10:07 36.28234 10.83558 17037 ft 326 kts 238°
2026-05-05 10:08 36.27018 10.81177 16607 ft 330 kts 239°
2026-05-05 10:08 36.25810 10.78767 16112 ft 330 kts 239°
2026-05-05 10:08 36.24598 10.76376 15680 ft 327 kts 239°
2026-05-05 10:08 36.23385 10.74016 15233 ft 324 kts 239°
2026-05-05 10:09 36.22187 10.71708 14794 ft 321 kts 238°
2026-05-05 10:09 36.20986 10.69409 14375 ft 318 kts 238°
2026-05-05 10:09 36.19777 10.67101 13911 ft 316 kts 238°
2026-05-05 10:09 36.18589 10.64837 13487 ft 313 kts 238°
2026-05-05 10:10 36.17400 10.62569 13066 ft 317 kts 238°
2026-05-05 10:10 36.16207 10.60294 12626 ft 321 kts 238°
2026-05-05 10:10 36.14998 10.57992 12203 ft 318 kts 238°
2026-05-05 10:10 36.13802 10.55717 11755 ft 316 kts 237°
2026-05-05 10:11 36.12608 10.53446 11324 ft 313 kts 237°
2026-05-05 10:11 36.11412 10.51173 10892 ft 311 kts 237°
2026-05-05 10:11 36.10242 10.48949 10500 ft 308 kts 237°
2026-05-05 10:11 36.09096 10.46773 10212 ft 302 kts 237°
2026-05-05 10:12 36.07946 10.44587 9726 ft 303 kts 237°
2026-05-05 10:12 36.06927 10.42320 9291 ft 302 kts 245°
2026-05-05 10:12 36.06433 10.39891 9216 ft 288 kts 266°
2026-05-05 10:12 36.06321 10.37474 9110 ft 274 kts 257°
2026-05-05 10:13 36.05722 10.35316 9032 ft 259 kts 245°
2026-05-05 10:13 36.04987 10.33350 8924 ft 249 kts 242°
2026-05-05 10:13 36.04189 10.31432 8470 ft 254 kts 240°
2026-05-05 10:13 36.03326 10.29512 8116 ft 253 kts 239°
2026-05-05 10:14 36.02468 10.27625 7787 ft 253 kts 239°
2026-05-05 10:14 36.01603 10.25727 7436 ft 252 kts 239°
2026-05-05 10:14 36.00751 10.23857 7103 ft 251 kts 239°
2026-05-05 10:14 35.99912 10.21959 6807 ft 249 kts 240°
2026-05-05 10:15 35.99097 10.20088 6492 ft 249 kts 240°
2026-05-05 10:15 35.98281 10.18200 6154 ft 247 kts 240°
2026-05-05 10:15 35.97738 10.16195 5709 ft 253 kts 266°
2026-05-05 10:15 35.98165 10.14123 5291 ft 256 kts 303°
2026-05-05 10:16 35.99510 10.12721 4875 ft 257 kts 340°
2026-05-05 10:16 36.01268 10.12503 4458 ft 255 kts 12°
2026-05-05 10:16 36.02937 10.13104 4056 ft 252 kts 22°
2026-05-05 10:16 36.04573 10.13898 3726 ft 246 kts 26°
2026-05-05 10:17 36.06047 10.14826 3555 ft 232 kts 31°
2026-05-05 10:17 36.07351 10.15885 3431 ft 214 kts 48°
2026-05-05 10:17 36.07978 10.17447 3025 ft 205 kts 90°
2026-05-05 10:17 36.07765 10.19149 2978 ft 201 kts 103°
2026-05-05 10:18 36.07613 10.20887 2977 ft 197 kts 94°
2026-05-05 10:18 36.07635 10.22487 2978 ft 180 kts 91°
2026-05-05 10:18 36.07650 10.24045 2941 ft 185 kts 93°
2026-05-05 10:18 36.07643 10.25656 2592 ft 183 kts 93°
2026-05-05 10:19 36.07639 10.27146 2332 ft 168 kts 93°
2026-05-05 10:19 36.07634 10.28565 2130 ft 164 kts 93°
2026-05-05 10:19 36.07628 10.29978 1929 ft 161 kts 93°
2026-05-05 10:19 36.07624 10.31327 1713 ft 156 kts 93°
2026-05-05 10:20 36.07619 10.32635 1490 ft 150 kts 93°
2026-05-05 10:20 36.07613 10.33931 1302 ft 151 kts 93°
2026-05-05 10:20 36.07609 10.35218 1104 ft 150 kts 92°
2026-05-05 10:20 36.07604 10.36508 904 ft 149 kts 92°
2026-05-05 10:21 36.07597 10.37782 708 ft 149 kts 92°
2026-05-05 10:21 36.07593 10.39061 515 ft 148 kts 92°
2026-05-05 10:21 36.07587 10.40330 322 ft 147 kts 92°
2026-05-05 10:21 36.07582 10.41584 134 ft 146 kts 91°
2026-05-05 10:22 36.07579 10.42808 20 ft 137 kts 91°
2026-05-05 10:22 36.07574 10.43735 15 ft 78 kts 90°
2026-05-05 10:22 36.07616 10.44292 15 ft 48 kts 57°
2026-05-05 10:22 36.07741 10.44397 16 ft 15 kts 287°
2026-05-05 10:23 36.07744 10.44263 15 ft 15 kts 271°
2026-05-05 10:23 36.07745 10.44129 15 ft 17 kts 270°
2026-05-05 10:23 36.07746 10.43985 15 ft 13 kts 276°
2026-05-05 10:23 36.07805 10.43931 16 ft 10 kts 358°
2026-05-05 10:24 36.07874 10.43931 17 ft 9 kts
2026-05-05 10:24 36.07943 10.43931 17 ft 9 kts
2026-05-05 10:24 36.07997 10.43932 17 ft 6 kts
2026-05-05 10:24 36.08058 10.43972 17 ft 13 kts 43°
2026-05-05 10:25 36.08111 10.44036 16 ft 7 kts 45°
2026-05-05 10:25 36.08149 10.44082 16 ft 7 kts 45°
2026-05-05 10:25 36.08186 10.44110 15 ft 5 kts 333°
2026-05-05 10:25 36.08209 10.44078 16 ft 4 kts 308°
2026-05-05 10:26 36.08226 10.44052 16 ft 2 kts 308°
2026-05-05 10:26 36.08232 10.44042 16 ft 0 kts 307°
2026-05-05 10:26 36.08232 10.44041 16 ft 0 kts 307°
2026-05-05 10:27 36.08234 10.44039 16 ft 0 kts 307°
2026-05-05 10:27 36.08234 10.44038 16 ft 0 kts 308°